MAGION 2

Satellite information

Favourite Embed

Satellite Type and Status

PAYLOADIN ORBIT

Key statistics

Satellite MAGION 2 at a glance.

Uptime

13225

Days in orbit

Revolutions

≈ 12.6

Per day

Orbit

HEO

HEO

Inclination

82.6

Latest

Satellite identification and parameters

Extended collection of information and parameters for MAGION 2.

Object identification

Identified? True

Debris? False

Object name: MAGION 2

International designator: 1989-080B

Object number (NORAD): 20281

Object ID (CCSDS): 20281

Country: CZECHOSLOVAKIA (CZCH)

Current information (Y/N): Y

RCS size: MEDIUM

Orbital parameters

Period: 114.039 minutes

Inclination: 82.601 deg

SMA: 7789.855 km

Apoapsis: 2326.108 km

Periapsis: 497.333 km

RAAN: 134.7972 deg

Eccentricy: 0.11738185

Argument of periapsis: 32.3563 deg

Mean anomaly: 334.4292 deg

Mean motion: 12.62724658 rev/day

Mean motion (dot): 0.00000791 rev/day2

B* drag term: 0.00022445457 1/REarth

Two-line elements (TLE)

Creation date: Dec. 12, 2025, 10:14 a.m.

Reference frame: TEME

Reference center: EARTH

Epoch: Dec. 12, 2025, 4:46 a.m. UTC

TLE line 0: 0 MAGION 2

TLE line 1: 1 20281U 89080B 25346.19879728 .00000791 00000-0 22445-3 0 9996

TLE line 2: 2 20281 82.6010 134.7972 1173819 32.3563 334.4292 12.62724658658477

Live tracking on map

Real-time ground track for satellite MAGION 2.

In-orbit conjunctions

A list of the most updated potential collisions computed for object MAGION 2.

Target Orbit TCA Probability of collision Miss distance Type
OBJECT K SSO 2025-09-01 08:27:29 0.0002165443 30.0 (m) UNKNOWN
SL-14 DEB LEO 2024-12-13 04:17:22 0.0002151276 490.0 (m) DEBRIS
CZ-4 DEB SSO 2024-11-26 14:50:56 0.0001699514 69.0 (m) DEBRIS

Associated space launch

Scientific satellite studying the radiation properties of loop antennas in a plasma environment

MAGION 2 was lifted into orbit during the mission ‘Tsiklon-3 | AUOS-Z-AV-IK 1’, on board a Tsiklon-3 space rocket.

The launch took place on Sept. 28, 1989, 12:04 a.m. from 32/2.

For more information about the launch, click the button.

Launch to space Tsiklon-3 | AUOS-Z-AV-IK 1
Tsiklon-3 | AUOS-Z-AV-IK 1

Agency: N/A

Status: Launch Successful

Launch date: Sept. 28, 1989, 12:04 a.m. UTC

Rocket: Tsiklon-3

Launch pad: 32/2

Location: Plesetsk Cosmodrome, Russian Federation

...

Latest news about this satellite

There are no fresh news available about this satellite. Check back as we update our databases every day.


Newsletter sign-up

Weekly statistics, charts and insights to help you stay on top of the space industry.